Regional Weather Roundup
Issued by NWS Mobile, AL

Home | Current Version | Previous Version | Text Only | Print | Product List | Glossary On
Versions: 1 2 3 4 5 6 7 8 9 10 11 12 13 14 15 16 17 18 19 20 21 22 23 24 25 26
000
ASUS44 KMOB 281013
RWRMOB
REGIONAL WEATHER ROUNDUP
NATIONAL WEATHER SERVICE MOBILE AL
500 AM CDT WED SEP 28 2016

NOTE: "FAIR" INDICATES FEW OR NO CLOUDS BELOW 12,000 FEET WITH NO
      SIGNIFICANT WEATHER AND/OR OBSTRUCTIONS TO VISIBILITY.

  * THESE STATIONS ARE PART OF THE UNIVERSITY OF SOUTH ALABAMA
    MESONET AND ARE NOT UNDER NWS OR FAA QUALITY CONTROL.

ALZ061>064-281100-
COASTAL ALABAMA

CITY           SKY/WX    TMP DP  RH WIND       PRES   REMARKS
MOBILE REG APT PTCLDY    70  64  81 NW5       29.94S
BROOKLEY FIELD PTCLDY    72  68  87 NW7       29.94S
USA CAMPUS*    NOT AVBL
DOG RIVER*     NOT AVBL


CITY           SKY/WX    TMP DP  RH WIND       PRES   REMARKS
MOUNT VERNON*  NOT AVBL
SARALAND*      NOT AVBL
BAY MINETTE*   NOT AVBL
LOXLEY*        NOT AVBL
ROBERTSDALE*   NOT AVBL
FAIRHOPE*      NOT AVBL
ELBERTA*       NOT AVBL
FOLEY*         NOT AVBL
GRAND BAY*     NOT AVBL
DAUPHIN ISLND* NOT AVBL
BON SCOUR NWR* NOT AVBL
GULF SHORES    CLEAR     71  71 100 W7        29.92R

$$

ALZ051>060-281100-
INTERIOR SOUTHWEST AND SOUTH CENTRAL ALABAMA

CITY           SKY/WX    TMP DP  RH WIND       PRES   REMARKS
GREENVILLE     NOT AVBL
EVERGREEN      CLOUDY    69  67  93 CALM      29.93S FOG
CASTLEBERRY*   NOT AVBL
ATMORE*        NOT AVBL
DIXIE*         NOT AVBL
ANDALUSIA/OPP  PTCLDY    73  69  87 CALM      29.92S
ANDALUSIA*     NOT AVBL
FLORALA APT    NOT AVBL
FLORALA*       NOT AVBL

$$

FLZ001>006-281100-
WESTERN FLORIDA PANHANDLE

CITY           SKY/WX    TMP DP  RH WIND       PRES   REMARKS
PENSACOLA      CLOUDY    73  71  93 N5        29.91S
NAS PENSACOLA  NOT AVBL
MILTON         NOT AVBL
WHTNG S FIELD  NOT AVBL


CITY           SKY/WX    TMP DP  RH WIND       PRES   REMARKS
WALNUT HILL*   NOT AVBL
JAY*           NOT AVBL
DUKE FIELD     PTCLDY    69  68  95 N2        29.92R
CRESTVIEW      PTCLDY    69  67  93 CALM      29.94R FOG
VALPARAISO     PTCLDY    72  70  92 NE2       29.91R
DESTIN         MOCLDY    77  73  87 NW3       29.91S

$$

MSZ076-079-281100-
INTERIOR SOUTHEAST MISSISSIPPI

CITY           SKY/WX    TMP DP  RH WIND       PRES   REMARKS
LEAKESVILLE*   NOT AVBL
AGRICOLA*      NOT AVBL

$$

MARINE OBSERVATIONS

STATION/POSITION TIME  TEMP    WIND        PRES    WAVE
                       AIR SEA DIR/SP/G            HT/PER
                 (UTC) (F)     (DEG/KT/KT) (MB)    (FT/S)
PASCAGOULA       0900   76     350/ 10/ 12 1013.1R
PETIT BOIS ISLND 0900   79     350/ 13/ 18 1013.6S
GRAND BAY        0745   76                   N/A
KATRINA CUT      0900   79     340/ 11     1013.5S
CEDAR POINT      0900   77     340/ 10     1012.9S
E DAUPHIN ISLAND 0900   80     330/ 10/ 11 1012.7R
MIDDLE BAY LIGHT 0900   80     340/ 11     1013.2R
USCG MOBILE BAY  0900   74 85  330/  4/  7 1013.7R
STATE DOCKS      0900   75 86              1013.1R
MEAHER PARK      0900   75     340/  5     1012.9F
WEEKS BAY        0800   73                   N/A
FORT MORGAN      0900   81     350/ 10/ 11 1012.3R
12 S ORANGE BCH  0950   82 86  340/  8/ 10 1013.0R   1/ 5
PENSACOLA BAY    0900   77 85   CALM  /  2 1013.0R
64 S DAUPHIN ISL 0900   83 85  280/  4/  6 1013.0R
67 S FORT MORGAN 0930   81     240/  6     1013.2R

$$

SELECTED LOCATIONS ACROSS THE REGION

CITY           SKY/WX    TMP DP  RH WIND       PRES   REMARKS
NEW ORLEANS    MOCLDY    79  67  66 N5        29.94S
GULFPORT       CLOUDY    73  66  78 N3        29.93R
PASCAGOULA AP  CLOUDY    72  69  90 N5        29.93S
PASCAGOULA*    NOT AVBL
HATTIESBURG    CLEAR     68  65  90 CALM      29.96S
LAUREL         CLEAR     64  59  82 NW3       29.97S
MERIDIAN       CLEAR     63  56  78 CALM      29.96S
JACKSON        CLEAR     61  57  87 CALM      29.96S
MONTGOMERY     CLEAR     70  65  84 SW3       29.93R
TROY           MOCLDY    67  67 100 CALM      29.93S
KINSTON*       NOT AVBL
GENEVA*        NOT AVBL
ASHFORD*       NOT AVBL
DOTHAN         PTCLDY    72  72 100 W3        29.96R
PANAMA CITY    PTCLDY    71  69  93 CALM      29.91R

$$





USA.gov is the U.S. government's official web portal to all federal, state and local government web resources and services.